Weather in Provideniya

Russia / Chukotka Autonomous Okrug     64°25′38″N   173°13′08″W
temp.,
°C
wind,
m/s
gust,
m/s
humid.,
%
clouds,
%
prec.,
mm/h
press.,
hPa
HPBL,
m
17 august, wed
wed1700:00+3n347313 0.0 101681
03:00+2n227912 0.0 101644
06:00+3n45738 0.0 1015305
09:00+4ne456193 0.0 10141057
12:00+6ne455481 0.0 10131235
15:00+7nne455059 0.0 10121343
18:00+7ne345265 0.0 10111190
21:00+5ne126661 0.0 1011367
18 august, thu
thu1800:00+3n34735 0.0 1011156
03:00+1n34763 0.0 1010117
06:00+3n336713 0.0 1010395
09:00+4n3464100 0.0 1009926
12:00+5n445998 0.0 10081129
15:00+5n3357100 0.0 10081279
18:00+5n225976 0.0 1009910
21:00+4nw226955 0.0 101072
19 august, fri
fri1900:00+3nnw227646 0.0 1011157
03:00+3n237998 0.0 1011207
06:00+3nne2277100 0.0 1011201
09:00+5nne117399 0.0 1012371
12:00+6ese1068100 0.0 1012711
15:00+5sw117597 0.0 1013485
18:00+6ene227281 0.0 1013614
21:00+5ene117886 0.0 1014336
20 august, sat
sat2000:00+4ne338872 0.0 1014361
03:00+4ne4492100 0.0 1014377
06:00+4ne3589100 0.1 1014553
09:00+5ne4584100 0.1 1015531
12:00+7ne367184 0.1 1015790
15:00+9ne585737 0.0 10141221
18:00+9ne495998 0.0 10141161
21:00+6nne467699 0.0 1015119
21 august, sun
sun2100:00+6n4671100 0.0 1015114
03:00+6n4675100 0.0 101582
06:00+7n4673100 0.0 1016179
09:00+9nne5558100 0.0 1016458
12:00+11nne555088 0.0 1015800
15:00+12ne345173 0.0 10151073
18:00+11ne345677 0.0 1016950
21:00+8nne347368 0.0 1018110